| time (UTC) | temp F | wind direction | speed MPH | gust MPH | rain 1hr in | rain 24hr in | rain mn in | humidity % | barometer mb |
| 20260831064019 | 63 | 202 | 5.0 | 11.0 | 0.00 | 0.01 | 0.00 | 85 | 996.3 |
| 20260831063015 | 62 | 211 | 4.0 | 12.0 | 0.00 | 0.01 | 0.00 | 86 | 996.3 |
| 20260831062016 | 62 | 207 | 5.0 | 14.0 | 0.00 | 0.01 | 0.00 | 86 | 996.3 |
| 20260831061018 | 62 | 207 | 4.0 | 11.0 | 0.00 | 0.01 | 0.00 | 87 | 996.2 |
| 20260831060019 | 62 | 210 | 4.0 | 9.0 | 0.00 | 0.01 | 0.00 | 88 | 996.2 |
| 20260831055020 | 61 | 217 | 3.0 | 9.0 | 0.00 | 0.01 | 0.00 | 90 | 996.1 |
| 20260831054016 | 61 | 219 | 3.0 | 7.0 | 0.00 | 0.01 | 0.00 | 90 | 995.9 |
| 20260831053037 | 61 | 214 | 4.0 | 8.0 | 0.00 | 0.01 | 0.00 | 90 | 995.9 |
| 20260831052018 | 61 | 198 | 3.0 | 9.0 | 0.00 | 0.01 | 0.00 | 90 | 995.8 |
| 20260831051119 | 61 | 218 | 2.0 | 5.0 | 0.00 | 0.01 | 0.00 | 90 | 995.8 |
| 20260831050020 | 61 | 207 | 2.0 | 8.0 | 0.00 | 0.01 | 0.00 | 90 | 995.8 |
| 20260831045021 | 61 | 220 | 2.0 | 7.0 | 0.00 | 0.01 | 0.00 | 89 | 995.6 |
| 20260831044017 | 62 | 218 | 3.0 | 12.0 | 0.00 | 0.01 | 0.00 | 89 | 995.6 |
| 20260831043018 | 62 | 206 | 2.0 | 7.0 | 0.00 | 0.01 | 0.00 | 88 | 995.5 |
| 20260831042019 | 62 | 219 | 2.0 | 6.0 | 0.00 | 0.01 | 0.00 | 88 | 995.6 |
| 20260831041020 | 62 | 217 | 2.0 | 8.0 | 0.00 | 0.01 | 0.00 | 87 | 995.6 |
| 20260831040036 | 62 | 221 | 3.0 | 9.0 | 0.00 | 0.01 | 0.00 | 86 | 995.6 |
| 20260831035017 | 62 | 208 | 3.0 | 8.0 | 0.00 | 0.01 | 0.00 | 87 | 995.6 |
| 20260831034018 | 62 | 213 | 3.0 | 10.0 | 0.00 | 0.01 | 0.00 | 88 | 995.6 |
| 20260831033019 | 62 | 201 | 4.0 | 9.0 | 0.00 | 0.01 | 0.00 | 89 | 995.8 |
| 20260831032020 | 61 | 211 | 4.0 | 15.0 | 0.00 | 0.01 | 0.00 | 89 | 995.8 |
| 20260831031016 | 61 | 211 | 3.0 | 7.0 | 0.00 | 0.01 | 0.00 | 89 | 995.7 |
| 20260831030017 | 61 | 203 | 3.0 | 9.0 | 0.00 | 0.01 | 0.00 | 90 | 995.6 |
| 20260831025018 | 61 | 215 | 3.0 | 8.0 | 0.00 | 0.01 | 0.00 | 90 | 995.6 |
| 20260831024039 | 61 | 211 | 2.0 | 7.0 | 0.00 | 0.01 | 0.00 | 90 | 995.5 |
| 20260831023015 | 62 | 213 | 4.0 | 10.0 | 0.00 | 0.01 | 0.00 | 90 | 995.4 |
| 20260831022016 | 62 | 206 | 2.0 | 11.0 | 0.00 | 0.01 | 0.00 | 89 | 995.3 |
| 20260831021017 | 62 | 222 | 3.0 | 10.0 | 0.00 | 0.01 | 0.00 | 89 | 995.3 |
| 20260831020018 | 62 | 210 | 3.0 | 10.0 | 0.00 | 0.01 | 0.00 | 89 | 995.3 |
| 20260831015019 | 62 | 216 | 5.0 | 13.0 | 0.00 | 0.01 | 0.00 | 89 | 995.3 |
| 20260831014015 | 62 | 212 | 4.0 | 12.0 | 0.00 | 0.01 | 0.00 | 88 | 995.3 |
| 20260831013017 | 62 | 207 | 3.0 | 9.0 | 0.00 | 0.01 | 0.00 | 89 | 995.4 |
| 20260831012018 | 62 | 214 | 2.0 | 8.0 | 0.00 | 0.01 | 0.00 | 88 | 995.4 |
| 20260831011018 | 62 | 208 | 4.0 | 10.0 | 0.00 | 0.01 | 0.00 | 88 | 995.4 |
| 20260831010020 | 62 | 200 | 4.0 | 14.0 | 0.00 | 0.01 | 0.00 | 87 | 995.4 |
| 20260831005016 | 62 | 216 | 2.0 | 10.0 | 0.00 | 0.01 | 0.00 | 87 | 995.4 |
| 20260831004037 | 62 | 201 | 2.0 | 5.0 | 0.00 | 0.01 | 0.00 | 86 | 995.4 |
| 20260831003017 | 62 | 226 | 3.0 | 8.0 | 0.00 | 0.01 | 0.00 | 85 | 995.3 |
| 20260831002019 | 62 | 215 | 3.0 | 9.0 | 0.00 | 0.01 | 0.00 | 84 | 995.3 |
| 20260831001020 | 62 | 216 | 3.0 | 6.0 | 0.00 | 0.01 | 0.00 | 83 | 995.4 |
| 20260831000016 | 62 | 204 | 3.0 | 7.0 | 0.00 | 0.01 | 0.00 | 83 | 995.4 |
| 20260830235016 | 62 | 208 | 3.0 | 8.0 | 0.00 | 0.01 | 0.00 | 83 | 995.4 |
| 20260830234018 | 62 | 213 | 4.0 | 10.0 | 0.00 | 0.01 | 0.00 | 84 | 995.4 |
| 20260830233059 | 62 | 210 | 4.0 | 10.0 | 0.00 | 0.01 | 0.00 | 84 | 995.5 |
| 20260830232020 | 62 | 214 | 2.0 | 9.0 | 0.00 | 0.01 | 0.00 | 85 | 995.5 |
| 20260830231016 | 62 | 211 | 2.0 | 7.0 | 0.00 | 0.01 | 0.00 | 85 | 995.4 |
| 20260830230016 | 62 | 203 | 2.0 | 5.0 | 0.00 | 0.01 | 0.00 | 85 | 995.4 |
| 20260830225038 | 63 | 207 | 3.0 | 10.0 | 0.00 | 0.01 | 0.00 | 85 | 995.4 |
| 20260830224039 | 63 | 211 | 3.0 | 8.0 | 0.00 | 0.01 | 0.00 | 86 | 995.5 |
| 20260830223020 | 63 | 208 | 1.0 | 4.0 | 0.00 | 0.01 | 0.00 | 86 | 995.4 |
| 20260830222056 | 63 | 223 | 2.0 | 6.0 | 0.00 | 0.01 | 0.00 | 85 | 995.4 |
| 20260830221017 | 63 | 216 | 3.0 | 6.0 | 0.00 | 0.01 | 0.00 | 85 | 995.3 |
| 20260830220018 | 63 | 211 | 3.0 | 8.0 | 0.00 | 0.01 | 0.00 | 85 | 995.3 |
| 20260830215019 | 62 | 217 | 2.0 | 7.0 | 0.00 | 0.01 | 0.01 | 84 | 995.3 |
| 20260830214040 | 63 | 210 | 1.0 | 4.0 | 0.00 | 0.01 | 0.01 | 82 | 995.3 |
| 20260830213016 | 63 | 221 | 1.0 | 4.0 | 0.00 | 0.01 | 0.01 | 82 | 995.3 |
| 20260830212018 | 63 | 201 | 1.0 | 2.0 | 0.00 | 0.01 | 0.01 | 80 | 995.1 |
| 20260830211039 | 64 | 205 | 1.0 | 4.0 | 0.00 | 0.01 | 0.01 | 79 | 995.1 |
| 20260830210020 | 65 | 208 | 1.0 | 2.0 | 0.00 | 0.01 | 0.01 | 77 | 994.9 |
| 20260830205016 | 66 | 215 | 1.0 | 3.0 | 0.00 | 0.01 | 0.01 | 76 | 994.9 |
| 20260830204017 | 66 | 197 | 2.0 | 5.0 | 0.00 | 0.01 | 0.01 | 75 | 994.7 |
| 20260830203018 | 67 | 209 | 3.0 | 6.0 | 0.00 | 0.01 | 0.01 | 74 | 994.6 |
| 20260830202019 | 67 | 200 | 2.0 | 8.0 | 0.00 | 0.01 | 0.01 | 73 | 994.5 |
| 20260830201020 | 68 | 221 | 3.0 | 10.0 | 0.00 | 0.01 | 0.01 | 72 | 994.6 |
| 20260830200016 | 68 | 211 | 3.0 | 8.0 | 0.00 | 0.01 | 0.01 | 71 | 994.5 |
| 20260830195017 | 68 | 210 | 2.0 | 7.0 | 0.00 | 0.01 | 0.01 | 71 | 994.5 |
| 20260830194038 | 68 | 204 | 2.0 | 6.0 | 0.00 | 0.01 | 0.01 | 70 | 994.5 |
| 20260830193119 | 68 | 207 | 3.0 | 8.0 | 0.00 | 0.01 | 0.01 | 70 | 994.5 |
| 20260830192015 | 68 | 210 | 2.0 | 8.0 | 0.00 | 0.01 | 0.01 | 70 | 994.4 |
| 20260830191017 | 68 | 223 | 1.0 | 3.0 | 0.00 | 0.01 | 0.01 | 69 | 994.3 |
| 20260830190018 | 69 | 208 | 1.0 | 5.0 | 0.00 | 0.01 | 0.01 | 68 | 994.3 |
| 20260830185019 | 70 | 213 | 2.0 | 7.0 | 0.00 | 0.01 | 0.01 | 67 | 994.2 |
| 20260830184055 | 70 | 211 | 2.0 | 7.0 | 0.00 | 0.01 | 0.01 | 66 | 994.1 |
| 20260830183137 | 71 | 206 | 3.0 | 7.0 | 0.00 | 0.01 | 0.01 | 65 | 994.0 |
| 20260830182018 | 71 | 212 | 3.0 | 8.0 | 0.00 | 0.01 | 0.01 | 64 | 994.0 |
| 20260830181039 | 72 | 208 | 3.0 | 9.0 | 0.00 | 0.01 | 0.01 | 64 | 994.0 |
| 20260830180040 | 72 | 225 | 4.0 | 8.0 | 0.00 | 0.01 | 0.01 | 65 | 994.0 |
| 20260830175016 | 73 | 214 | 3.0 | 8.0 | 0.00 | 0.01 | 0.01 | 65 | 994.0 |
| 20260830174037 | 73 | 209 | 4.0 | 10.0 | 0.00 | 0.01 | 0.01 | 65 | 994.0 |
| 20260830173018 | 73 | 212 | 3.0 | 9.0 | 0.00 | 0.01 | 0.01 | 65 | 994.1 |
| 20260830172019 | 73 | 217 | 4.0 | 11.0 | 0.00 | 0.01 | 0.01 | 65 | 994.1 |
| 20260830171016 | 73 | 201 | 3.0 | 8.0 | 0.00 | 0.01 | 0.01 | 65 | 994.1 |
| 20260830170017 | 73 | 199 | 2.0 | 8.0 | 0.00 | 0.01 | 0.01 | 65 | 994.1 |
| 20260830165018 | 74 | 203 | 3.0 | 8.0 | 0.00 | 0.01 | 0.01 | 64 | 994.1 |
| 20260830164019 | 73 | 209 | 4.0 | 14.0 | 0.00 | 0.01 | 0.01 | 64 | 994.1 |
| 20260830163015 | 73 | 214 | 4.0 | 11.0 | 0.00 | 0.01 | 0.01 | 64 | 994.1 |
| 20260830162016 | 73 | 216 | 4.0 | 8.0 | 0.00 | 0.01 | 0.01 | 64 | 994.2 |
| 20260830161018 | 73 | 212 | 3.0 | 13.0 | 0.00 | 0.01 | 0.01 | 64 | 994.3 |
| 20260830160019 | 73 | 191 | 3.0 | 10.0 | 0.00 | 0.01 | 0.01 | 64 | 994.4 |
| 20260830155020 | 73 | 209 | 3.0 | 13.0 | 0.00 | 0.01 | 0.01 | 63 | 994.3 |
| 20260830154016 | 73 | 214 | 3.0 | 8.0 | 0.00 | 0.01 | 0.01 | 63 | 994.5 |
| 20260830153017 | 73 | 202 | 5.0 | 12.0 | 0.00 | 0.01 | 0.01 | 63 | 994.6 |
| 20260830152018 | 73 | 215 | 5.0 | 12.0 | 0.00 | 0.01 | 0.01 | 62 | 994.7 |
| 20260830151020 | 73 | 217 | 5.0 | 12.0 | 0.00 | 0.01 | 0.01 | 62 | 994.6 |
| 20260830150016 | 74 | 213 | 3.0 | 10.0 | 0.00 | 0.01 | 0.01 | 63 | 994.6 |
| 20260830145017 | 74 | 209 | 4.0 | 9.0 | 0.00 | 0.01 | 0.01 | 63 | 994.7 |
| 20260830144038 | 74 | 214 | 4.0 | 11.0 | 0.00 | 0.01 | 0.01 | 64 | 994.8 |
| 20260830143019 | 74 | 214 | 4.0 | 9.0 | 0.00 | 0.01 | 0.01 | 64 | 994.8 |
| 20260830142016 | 73 | 199 | 5.0 | 13.0 | 0.00 | 0.02 | 0.01 | 65 | 995.0 |
| 20260830141017 | 73 | 210 | 4.0 | 10.0 | 0.00 | 0.02 | 0.01 | 65 | 995.1 |
| 20260830140018 | 73 | 207 | 4.0 | 10.0 | 0.00 | 0.02 | 0.01 | 66 | 995.2 |
| 20260830135019 | 73 | 200 | 3.0 | 8.0 | 0.00 | 0.02 | 0.01 | 67 | 995.2 |
| 20260830134035 | 73 | 234 | 3.0 | 8.0 | 0.00 | 0.02 | 0.01 | 66 | 995.3 |
| 20260830133016 | 73 | 211 | 4.0 | 11.0 | 0.00 | 0.02 | 0.01 | 65 | 995.4 |
| 20260830132037 | 74 | 214 | 3.0 | 11.0 | 0.00 | 0.06 | 0.01 | 65 | 995.5 |
| 20260830131019 | 73 | 230 | 2.0 | 7.0 | 0.00 | 0.09 | 0.01 | 65 | 995.5 |
| 20260830130019 | 73 | 214 | 4.0 | 12.0 | 0.00 | 0.09 | 0.01 | 65 | 995.6 |
| 20260830125015 | 73 | 212 | 4.0 | 9.0 | 0.00 | 0.09 | 0.01 | 65 | 995.7 |
| 20260830124017 | 73 | 213 | 3.0 | 6.0 | 0.00 | 0.09 | 0.01 | 65 | 995.7 |
| 20260830123018 | 73 | 218 | 4.0 | 12.0 | 0.00 | 0.12 | 0.01 | 66 | 995.7 |
| 20260830122019 | 72 | 220 | 3.0 | 8.0 | 0.00 | 0.15 | 0.01 | 67 | 995.8 |
| 20260830121015 | 73 | 202 | 3.0 | 9.0 | 0.00 | 0.18 | 0.01 | 67 | 995.8 |
| 20260830120057 | 72 | 221 | 4.0 | 9.0 | 0.00 | 0.23 | 0.01 | 69 | 995.9 |
| 20260830115058 | 72 | 197 | 5.0 | 11.0 | 0.00 | 0.27 | 0.01 | 69 | 995.9 |
| 20260830114019 | 72 | 210 | 5.0 | 10.0 | 0.00 | 0.27 | 0.01 | 68 | 996.0 |
| 20260830113015 | 72 | 220 | 5.0 | 12.0 | 0.00 | 0.27 | 0.01 | 70 | 995.9 |
| 20260830112016 | 71 | 205 | 4.0 | 13.0 | 0.00 | 0.27 | 0.01 | 71 | 996.0 |
| 20260830111017 | 72 | 219 | 6.0 | 16.0 | 0.00 | 0.27 | 0.01 | 71 | 996.0 |
| 20260830110018 | 71 | 204 | 5.0 | 10.0 | 0.00 | 0.27 | 0.01 | 72 | 996.1 |
| 20260830105014 | 71 | 218 | 5.0 | 12.0 | 0.00 | 0.27 | 0.01 | 73 | 996.2 |
| 20260830104016 | 70 | 203 | 4.0 | 12.0 | 0.01 | 0.27 | 0.01 | 75 | 996.3 |
| 20260830103037 | 70 | 201 | 4.0 | 9.0 | 0.01 | 0.27 | 0.01 | 75 | 996.3 |
| 20260830102018 | 70 | 214 | 4.0 | 11.0 | 0.01 | 0.27 | 0.01 | 74 | 996.4 |
| 20260830101019 | 71 | 189 | 4.0 | 11.0 | 0.01 | 0.27 | 0.01 | 76 | 996.4 |
| 20260830100035 | 69 | 213 | 3.0 | 8.0 | 0.01 | 0.27 | 0.01 | 78 | 996.5 |
| 20260830095037 | 69 | 217 | 5.0 | 12.0 | 0.01 | 0.27 | 0.01 | 81 | 996.6 |
| 20260830094018 | 68 | 219 | 4.0 | 8.0 | 0.00 | 0.26 | 0.00 | 84 | 996.6 |
| 20260830093020 | 67 | 198 | 2.0 | 9.0 | 0.00 | 0.26 | 0.00 | 87 | 996.5 |
| 20260830092020 | 67 | 222 | 3.0 | 8.0 | 0.00 | 0.26 | 0.00 | 87 | 996.5 |
| 20260830091016 | 67 | 218 | 3.0 | 7.0 | 0.00 | 0.26 | 0.00 | 87 | 996.6 |
| 20260830090017 | 66 | 213 | 3.0 | 8.0 | 0.00 | 0.26 | 0.00 | 88 | 996.6 |
| 20260830085038 | 66 | 216 | 1.0 | 4.0 | 0.00 | 0.26 | 0.00 | 89 | 996.7 |
| 20260830084019 | 66 | 199 | 2.0 | 7.0 | 0.00 | 0.26 | 0.00 | 89 | 996.6 |
| 20260830083015 | 66 | 205 | 2.0 | 6.0 | 0.00 | 0.26 | 0.00 | 90 | 996.6 |
| 20260830082017 | 65 | 212 | 1.0 | 4.0 | 0.00 | 0.26 | 0.00 | 91 | 996.6 |
| 20260830081018 | 65 | 208 | 3.0 | 6.0 | 0.00 | 0.26 | 0.00 | 91 | 996.6 |
| 20260830080018 | 65 | 225 | 1.0 | 7.0 | 0.00 | 0.26 | 0.00 | 92 | 996.6 |
| 20260830075019 | 64 | 211 | 3.0 | 7.0 | 0.00 | 0.26 | 0.00 | 92 | 996.5 |
| 20260830074015 | 64 | 191 | 3.0 | 6.0 | 0.00 | 0.27 | 0.00 | 93 | 996.5 |
| 20260830073016 | 64 | 188 | 2.0 | 6.0 | 0.00 | 0.27 | 0.00 | 94 | 996.4 |
| 20260830072017 | 63 | 202 | 2.0 | 5.0 | 0.00 | 0.27 | 0.00 | 94 | 996.4 |
| 20260830071018 | 63 | 205 | 2.0 | 5.0 | 0.00 | 0.27 | 0.00 | 95 | 996.4 |
| 20260830070040 | 63 | 187 | 1.0 | 5.0 | 0.00 | 0.27 | 0.00 | 95 | 996.3 |
| 20260830065016 | 62 | 211 | 2.0 | 5.0 | 0.00 | 0.27 | 0.00 | 95 | 996.3 |